sat.trackr.live / text

‹ back to catalog

STARLINK-34677

NORAD 65031 · 2025-161S

PAYLOAD ACTIVE UNKNOWN

§ Identity

Operator
Country
US
Launch date
2025-07-30
Launch site
AFWTR
Launch vehicle
Mass (kg)
RCS (m²)

Purposes: comms

External: N2YO · Heavens-Above · Gunter

§ Orbital elements

Epoch: 2026-09-19T20:10:54.711264Z

Period
93.85 min
Inclination
53.1589°
Eccentricity
0.0001405
Mean motion
15.34408000 rev/d
Perigee alt
461.7 km
Apogee alt
463.6 km
Semi-major
6,840.8 km
B*
3.2396e-4
RAAN
111.0877°
Arg perigee
77.3624°
Mean anomaly
282.7536°
Rev number
6,397

§ Raw data

STARLINK-346771 65031U 25161S   26262.84091101  .00010587  00000+0  32396-3 0  99982 65031  53.1589 111.0877 0001405  77.3624 282.7536 15.34408000 63975

JSON: /api/v1/satellites/65031 · /tle

For live sub-satellite position, see the globe view (requires WebGL).

§ Visibility from observer

Set your observer location to see the next 7 days of passes ≥ 10°. The values pass through the URL so the page stays shareable.

No JS? Fill the form by hand. The geolocation button needs JavaScript.